目前日期文章:201304 (100)

瀏覽方式: 標題列表 簡短摘要
發表時間 文章標題 人氣 留言
2013-04-30 圓剛 F210A HomeFree無線電視盒zz (0) (0)
2013-04-30 ~WELLY~SANYO DB-L70 鋰電池+充電器組cs (0) (0)
2013-04-30 SAMSUNG NX1000+20-50mm+16mm 雙鏡組(公司貨)_3hx (0) (0)
2013-04-30 電池王 OLYMPUS LI-10B-Li-12B 智慧型快速充電器+車充bs (0) (0)
2013-04-30 Sony Xperia Z C6602 L36h(i) 超透超顯影機身背膜(2入)rj (0) (0)
2013-04-28 皮套王精品手工 Samsung i9000 直式菱格紋 客製化皮套nl (0) (0)
2013-04-28 PGS SONY Xperia Z 十字紋立架式側翻皮套 內含TPU防撞保護軟殼qm (0) (0)
2013-04-28 ULTRA POWER Motorola BR-50手機配件包wq (0) (0)
2013-04-28 BEFINE Apple Wireless KB 專用鍵盤保護膜KUSO中文Liontc (0) (0)
2013-04-28 日本耳機孔造型防塵塞II(3.5mm)。六款可選ug (0) (0)
2013-04-27 橋頭太成肉包 黃金蔬菜包(10入-盒)zr (0) (0)
2013-04-27 【卡比索】俄羅斯搖滾黑森林冰淇淋(120mlx4入)hs (0) (0)
2013-04-27 《寶貝樂》俏公雞複合式兒童育樂組~溜滑梯+鞦韆kw (0) (0)
2013-04-27 《阮的肉干》超值選2+2雙倍美味大滿組ag (0) (0)
2013-04-27 【Keep Chic孕婦裝】經典流行條紋內搭褲(共二色)hr (0) (0)
2013-04-25 《A1 》肉骨茶麵 90g×4suv (0) (0)
2013-04-25 統一 肉骨茶麵(3碗-組)wb (0) (0)
2013-04-25 Ido醫朵AC-11賦活水凝面膜六瓶團購組tj (0) (0)
2013-04-25 紐西蘭Comvita兒童蜂膠蜜糖露(檸檬)200mlwo (2) (0)
2013-04-25 SweetEmily法式甜品 甜心馬卡龍禮盒x10組(6入)ib (0) (0)
2013-04-24 AMD Trinity APU A4-5300 雙核心處理器-AD5300OKHJBOXug (0) (0)
2013-04-24 第一家芋冰城 甲仙招牌三合一芋餅x8盒(15入-盒)me (0) (0)
2013-04-24 【御復珍】杏仁粉系列-鮮磨帝王杏 (600g x 6罐)yg (0) (0)
2013-04-24 那魯灣嚴選卜蜂人蔘雞1包(1000g-包)hs (0) (0)
2013-04-24 幸福流域 樂曼特思 低咖啡因咖啡(8g×10入)_0qf (0) (0)
2013-04-22 利口樂 潤喉糖綜合口味組(45gx5入)sh (0) (0)
2013-04-22 萬和豐 田園香-波羅蜜脆片rr (0) (0)
2013-04-22 嘉冠喜-特濃鮮乳煎菓-餅 禮盒(客家桐花+管樂之都-2入)ii (0) (0)
2013-04-22 【幸福流域】康孅輕盈茶三角立體茶袋(40入)cq (0) (0)
2013-04-22 麥維爾澳洲大燕麥片-盒(800g)iy (0) (0)
2013-04-21 【 LE PAPILLON 】雪紡芭蕾公主馬甲小禮服(米白)_1pv (0) (0)
2013-04-21 TaiCheng巴黎鐵塔鑰匙圈艾菲爾鐵塔模型設計ea (0) (0)
2013-04-21 《Font D’or》法朵西班牙天然礦泉水(1500ml)ri (0) (0)
2013-04-21 《自然豐華》黃金超油切綠茶茶包(4g x 20入)vd (0) (0)
2013-04-21 Font D’or 法朵西班牙天然礦泉水1500ml(6入)pu (0) (0)
2013-04-19 【健康首富】纖膳白腎豆膠囊60粒uw (0) (0)
2013-04-19 《多立康》五味子芝麻錠 (120粒-瓶) 2瓶組jf (0) (0)
2013-04-19 【彭老師】野薑花粽(50顆-箱)ok (0) (0)
2013-04-19 【康博】COMPRO IP570P PoE 紅外線 光學 H.264 百萬畫素監控攝影 (0) (0)
2013-04-19 宜蘭縣冬山鄉農會 有機黑木耳飲245ml(24罐-箱)eh (0) (0)
2013-04-18 先麥 綜合Q禮盒x6盒(12入-盒)jz (0) (0)
2013-04-18 《金蘭》鼓舌醬油590mlzb (7) (0)
2013-04-18 芳第《High Tea》天然草本水果茶-檸檬果萊姆 (2g X 20包)pz (0) (0)
2013-04-18 【O.B】The StoryT恤-共三色fm (0) (0)
2013-04-18 三星農會 紅麴蔥肉包x6包(8入-包)ng (0) (0)
2013-04-17 LAMOUR玫瑰S孅膠囊60顆_0sn (0) (0)
2013-04-17 倍熱 超孅腰腹霜100mlqe (0) (0)
2013-04-17 《曼寧》台灣花茶-苗栗杭菊茶(45g)me (0) (0)
2013-04-17 萬和豐 田園香-敏豆脆片pf (0) (0)
2013-04-17 【雅方 桂冠】edayfood紅燒原汁羊肉爐超值火鍋組(共12入)wt (0) (0)
1 2